[[{"header":{"parameterUnit":"m.s-1","parameterCategory":1,"la1":30.2991,"la2":30.254,"lo1":-89.0895,"lo2":-89.0444,"dy":0.0017,"dx":0.0017,"nx":28,"ny":28,"refTime":"2024-12-13T03:00:00:Z","depth":0,"parameterNumber":2,"parameterNumberName":"U-component_of_WINDS"},"data":[0,0,0,0,0,0,0,0,0,0,0,0,0,0,0,0,0,0,0,0,0,0,0,0,0,0,0,0,0,0,0,0,0,0,0,0,0,0,0,0,0,0,0,0,0,0,0,0,0,0,0,0,0,0,0,0,0,0,-1.1426,-1.1426,0,-1.1398,-1.1398,-1.1398,-1.1293,-1.1291,-1.1288,-1.1286,-1.1261,-1.1263,-1.1264,0,0,0,0,0,0,0,0,0,0,0,0,0,-1.1392,-1.1393,-1.1426,-1.1426,-1.1426,-1.1398,-1.1398,-1.1398,-1.1293,-1.129,-1.1288,-1.1285,-1.126,-1.1262,-1.1264,0,0,0,0,0,0,0,0,0,0,0,0,0,-1.139,-1.1394,-1.1426,-1.137,-1.1365,-1.1399,-1.1398,-1.1398,-1.1294,-1.129,-1.1287,-1.1283,-1.126,-1.1262,-1.1264,-1.1351,0,0,-1.1272,-1.1273,0,0,0,0,0,0,0,0,-1.139,-1.1392,-1.1379,-1.1374,-1.1368,-1.1345,-1.1377,-1.1382,-1.1295,-1.1321,-1.1286,-1.1282,-1.1292,-1.1292,-1.1294,-1.135,-1.1349,-1.1272,-1.1273,-1.1274,-1.1275,0,0,0,0,0,0,0,-1.1391,-1.1392,-1.1415,-1.1379,-1.1372,-1.1347,-1.1343,-1.1377,-1.1327,-1.1319,-1.1311,-1.1309,-1.1289,-1.1293,-1.1293,-1.1349,-1.1272,-1.1274,-1.1275,-1.1276,-1.1474,-1.1478,0,0,0,0,0,0,-1.1398,-1.1393,-1.1416,-1.1414,-1.1371,-1.1351,-1.1346,-1.1356,-1.1327,-1.1319,-1.1312,-1.1304,-1.129,-1.1291,-1.1292,-1.1392,-1.1274,-1.1277,-1.1278,-1.147,-1.1475,-1.1479,0,0,0,0,0,0,-1.1398,-1.1401,-1.1417,-1.1402,-1.1402,-1.1355,-1.1368,-1.1358,-1.1361,-1.1322,-1.1312,-1.1325,-1.1287,-1.1289,-1.1337,-1.1389,-1.1278,-1.128,-1.1466,-1.1472,-1.1477,-1.1592,0,0,0,0,0,0,-1.1398,-1.1402,-1.1434,-1.1403,-1.1403,-1.1463,-1.1371,-1.136,-1.1365,-1.1355,-1.1331,-1.1324,-1.1285,-1.1334,-1.1339,-1.1391,-1.1282,-1.1461,-1.1469,-1.1475,-1.1584,-1.1601,-1.1617,0,0,0,0,0,-1.1397,-1.1468,-1.1436,-1.1439,-1.1442,-1.1466,-1.1466,-1.1418,-1.137,-1.1402,-1.1376,-1.1325,-1.1383,-1.134,-1.1345,-1.1398,-1.1458,-1.1466,-1.1475,-1.1576,-1.1598,-1.1616,0,0,0,0,0,0,-1.1508,-1.1463,-1.1427,-1.149,-1.1482,-1.1448,-1.1487,-1.1442,-1.1449,-1.1439,-1.138,-1.1376,-1.1433,-1.142,-1.1373,-1.148,-1.1411,-1.1422,-1.1487,-1.1507,-1.1523,-1.1526,-1.1284,0,0,0,0,0,-1.1539,-1.1561,-1.1521,-1.1581,-1.1579,-1.1534,-1.1543,-1.1507,-1.1497,-1.1493,-1.1471,-1.1464,-1.1481,-1.1493,-1.1506,-1.1581,-1.1575,-1.162,-1.1636,-1.165,-1.166,-1.1699,-1.1719,-1.1508,-1.1508,-1.1507,0,0,-1.1605,-1.1583,-1.1601,-1.1603,-1.1593,-1.1618,-1.1532,-1.1562,-1.1581,-1.1498,-1.1542,-1.1526,-1.1514,-1.1577,-1.1603,-1.1568,-1.1716,-1.1661,-1.1672,-1.1674,-1.171,-1.173,-1.1748,-1.1514,-1.1512,-1.1512,0,0,-1.1738,-1.1724,-1.1772,-1.1763,-1.1748,-1.1717,-1.1729,-1.1701,-1.1687,-1.173,-1.1669,-1.169,-1.172,-1.1714,-1.1715,-1.1846,-1.1799,-1.1852,-1.1938,-1.1977,-1.1994,-1.2009,-1.2056,-1.2074,-1.1862,-1.1862,-1.1862,0,-1.1823,-1.1857,-1.1803,-1.1837,-1.184,-1.1765,-1.1814,-1.1808,-1.1799,-1.1804,-1.1763,-1.1799,-1.1786,-1.1846,-1.1878,-1.1881,-1.1894,-1.1855,-1.1996,-1.201,-1.2023,-1.2067,-1.2085,-1.1869,-1.1868,-1.1867,-1.1867,0,-1.1962,-1.1987,-1.2028,-1.202,-1.2027,-1.2069,-1.2022,-1.2036,-1.1999,-1.1973,-1.2019,-1.2,-1.2009,-1.202,-1.1985,-1.2076,-1.2054,-1.2006,-1.1936,-1.205,-1.2091,-1.2108,-1.1878,-1.1876,-1.1874,-1.1872,0,0,-1.2165,-1.2125,-1.2142,-1.2137,-1.2115,-1.2133,-1.2172,-1.2179,-1.2193,-1.2189,-1.222,-1.2247,-1.2202,-1.2203,-1.2167,-1.2201,-1.2307,-1.2148,-1.2147,-1.2179,-1.2407,-1.2444,-1.2465,-1.2275,-1.2278,-1.228,-1.2408,0,-1.2292,-1.2355,-1.2307,-1.2379,-1.2402,-1.233,-1.2364,-1.2355,-1.2331,-1.2348,-1.2323,-1.2343,-1.2282,-1.2282,-1.2313,-1.2288,-1.2352,-1.2278,-1.2305,-1.2307,-1.2311,-1.2486,-1.2525,-1.2647,-1.2424,-1.2426,-1.2428,0,-1.2449,-1.2451,-1.2525,-1.2498,-1.2506,-1.2537,-1.2539,-1.2556,-1.2544,-1.2525,-1.2526,-1.2481,-1.2517,-1.2448,-1.2499,-1.2449,-1.2457,-1.2447,-1.2451,-1.2452,-1.2376,-1.2494,-1.2684,-1.2703,-1.2453,-1.2451,-1.2449,0,-1.2591,-1.2612,-1.2659,-1.2657,-1.2626,-1.265,-1.2639,-1.2623,-1.263,-1.2633,-1.2637,-1.2644,-1.2649,-1.2656,-1.2614,-1.2567,-1.2671,-1.2597,-1.2657,-1.2658,-1.2683,-1.2682,-1.2879,-1.2687,-1.2687,-1.2686,-1.2686,0,-1.2739,-1.2787,-1.2722,-1.2752,-1.2804,-1.2748,-1.2802,-1.2783,-1.277,-1.2795,-1.2733,-1.2758,-1.27,-1.272,-1.2687,-1.2735,-1.2737,-1.2723,-1.2715,-1.273,-1.2732,-1.2735,-1.2726,-1.2691,-1.269,-1.2689,-1.2688,0,-1.2907,-1.2865,-1.2912,-1.2878,-1.2871,-1.2911,-1.2883,-1.2909,-1.2881,-1.2914,-1.2918,-1.2875,-1.2895,-1.2853,-1.2867,-1.2845,-1.2913,-1.289,-1.2917,-1.291,-1.2973,-1.2968,-1.318,-1.3205,-1.2996,-1.2998,-1.3,0,-1.3004,-1.304,-1.301,-1.3021,-1.3013,-1.3033,-1.3039,-1.2987,-1.2996,-1.2985,-1.3013,-1.3027,-1.3036,-1.3071,-1.3042,-1.3052,-1.303,-1.3103,-1.3031,-1.3045,-1.3032,-1.3031,-1.3035,-1.3119,-1.3121,-1.3123,-1.3125,0,-1.3182,-1.316,-1.3171,-1.3176,-1.3185,-1.3186,-1.3183,-1.3197,-1.3141,-1.3155,-1.3173,-1.318,-1.3194,-1.3209,-1.3213,-1.3202,-1.3155,-1.3148,-1.3162,-1.3179,-1.3193,-1.3187,-1.2959,-1.3143,-1.3141,-1.314,-1.3139,-1.3138,-1.3318,-1.3347,-1.333,-1.3345,-1.3337,-1.3335,-1.3358,-1.3333,-1.3347,-1.3353,-1.3321,-1.3348,-1.3335,-1.3335,-1.3329,-1.3349,-1.3317,-1.3338,-1.3343,-1.3349,-1.336,-1.3189,-1.335,-1.3349,-1.3349,-1.3348,-1.3348,0,-1.3494,-1.3479,-1.3494,-1.3491,-1.3503,-1.3456,-1.345,-1.3464,-1.3487,-1.3478,-1.3488,-1.351,-1.3524,-1.3496,-1.3506,-1.3528,-1.3507,-1.3533,-1.3531,-1.353,-1.3388,-1.3375,-1.355,-1.355,-1.355,-1.355,-1.355,-1.355,-1.3587,-1.3632,-1.3608,-1.3649,-1.3634,-1.3658,-1.3659,-1.3658,-1.3651,-1.3677,-1.3689,-1.367,-1.3654,-1.3662,-1.3674,-1.3665,-1.3672,-1.3706,-1.3691,-1.3559,-1.354,-1.3521,-1.3508,-1.3708,-1.3708,-1.383,-1.3831,-1.3832]},{"header":{"parameterUnit":"m.s-1","parameterCategory":1,"la1":30.2991,"la2":30.254,"lo1":-89.0895,"lo2":-89.0444,"dy":0.0017,"dx":0.0017,"nx":28,"ny":28,"refTime":"2024-12-13T03:00:00:Z","depth":0,"parameterNumber":3,"parameterNumberName":"V-component_of_WINDS"},"data":[0,0,0,0,0,0,0,0,0,0,0,0,0,0,0,0,0,0,0,0,0,0,0,0,0,0,0,0,0,0,0,0,0,0,0,0,0,0,0,0,0,0,0,0,0,0,0,0,0,0,0,0,0,0,0,0,0,0,-0.3364,-0.3364,0,-0.3411,-0.3412,-0.3412,-0.3394,-0.3393,-0.3392,-0.3391,-0.3442,-0.3444,-0.3447,0,0,0,0,0,0,0,0,0,0,0,0,0,-0.326,-0.3262,-0.3364,-0.3364,-0.3365,-0.3411,-0.3412,-0.3412,-0.3394,-0.3393,-0.3392,-0.339,-0.3441,-0.3444,-0.3447,0,0,0,0,0,0,0,0,0,0,0,0,0,-0.3306,-0.3263,-0.3364,-0.3362,-0.3362,-0.3411,-0.3412,-0.3412,-0.3395,-0.3393,-0.3391,-0.339,-0.344,-0.3444,-0.3447,-0.3502,0,0,-0.3458,-0.346,0,0,0,0,0,0,0,0,-0.3304,-0.331,-0.3361,-0.3362,-0.3362,-0.3395,-0.3394,-0.3443,-0.3395,-0.3382,-0.3391,-0.3389,-0.3428,-0.3432,-0.3445,-0.3505,-0.3507,-0.3459,-0.3461,-0.3462,-0.3463,0,0,0,0,0,0,0,-0.33,-0.3308,-0.3383,-0.3362,-0.3363,-0.3359,-0.3363,-0.3403,-0.3414,-0.3383,-0.3382,-0.3388,-0.3428,-0.3442,-0.3446,-0.3508,-0.3458,-0.3462,-0.3464,-0.3465,-0.3614,-0.3615,0,0,0,0,0,0,-0.3297,-0.3305,-0.3381,-0.3384,-0.3328,-0.3362,-0.3367,-0.3386,-0.3413,-0.3416,-0.3389,-0.3387,-0.3436,-0.3442,-0.3448,-0.3513,-0.3462,-0.3466,-0.3468,-0.3612,-0.3614,-0.3616,0,0,0,0,0,0,-0.3295,-0.3304,-0.3379,-0.3344,-0.3354,-0.3365,-0.3387,-0.3388,-0.3402,-0.3418,-0.342,-0.3401,-0.3435,-0.3443,-0.3488,-0.3515,-0.3467,-0.347,-0.361,-0.3613,-0.3615,-0.3645,0,0,0,0,0,0,-0.3292,-0.3303,-0.3324,-0.3345,-0.3356,-0.3419,-0.3388,-0.339,-0.3407,-0.3405,-0.3429,-0.3432,-0.3434,-0.3483,-0.3492,-0.3519,-0.3473,-0.3608,-0.3611,-0.3614,-0.3642,-0.3648,-0.3654,0,0,0,0,0,-0.3288,-0.3331,-0.3325,-0.3334,-0.3382,-0.342,-0.3426,-0.3428,-0.341,-0.3431,-0.3441,-0.3431,-0.351,-0.3488,-0.3498,-0.3526,-0.3606,-0.361,-0.3614,-0.3639,-0.3647,-0.3654,0,0,0,0,0,0,-0.3314,-0.3334,-0.3327,-0.3378,-0.3397,-0.3417,-0.3444,-0.3436,-0.3462,-0.3459,-0.346,-0.3466,-0.3513,-0.3524,-0.3499,-0.358,-0.3555,-0.3562,-0.3571,-0.3579,-0.3585,-0.3582,-0.3476,0,0,0,0,0,-0.3326,-0.3355,-0.3371,-0.3414,-0.3424,-0.3432,-0.3449,-0.3448,-0.3469,-0.3477,-0.3491,-0.3512,-0.3541,-0.3561,-0.3589,-0.3643,-0.3648,-0.3667,-0.3673,-0.3678,-0.3684,-0.3713,-0.3722,-0.3629,-0.3629,-0.3629,0,0,-0.335,-0.3364,-0.3383,-0.342,-0.3435,-0.3465,-0.3439,-0.3473,-0.3496,-0.3483,-0.3526,-0.3537,-0.356,-0.361,-0.3633,-0.3621,-0.371,-0.3684,-0.3687,-0.369,-0.3718,-0.3727,-0.3734,-0.3632,-0.3632,-0.3631,0,0,-0.341,-0.3424,-0.3461,-0.3476,-0.3498,-0.3503,-0.3512,-0.3533,-0.3539,-0.3582,-0.3573,-0.36,-0.3651,-0.3668,-0.3683,-0.3747,-0.374,-0.3757,-0.3789,-0.3817,-0.3825,-0.3831,-0.3854,-0.3862,-0.3762,-0.3762,-0.3762,0,-0.3438,-0.3483,-0.3482,-0.3516,-0.3532,-0.352,-0.3558,-0.3573,-0.3604,-0.3615,-0.3601,-0.3664,-0.3679,-0.3732,-0.3748,-0.3761,-0.3771,-0.3754,-0.3824,-0.383,-0.3836,-0.3858,-0.3867,-0.3764,-0.3764,-0.3764,-0.3763,0,-0.3516,-0.3547,-0.3575,-0.3603,-0.3623,-0.3659,-0.3663,-0.3683,-0.368,-0.3686,-0.3731,-0.3748,-0.3779,-0.3791,-0.3789,-0.3844,-0.3836,-0.3823,-0.3798,-0.3847,-0.3867,-0.3876,-0.3767,-0.3766,-0.3765,-0.3765,0,0,-0.3596,-0.3621,-0.3632,-0.3644,-0.3667,-0.3691,-0.3726,-0.3755,-0.3772,-0.3793,-0.3823,-0.3865,-0.3853,-0.387,-0.387,-0.3894,-0.3944,-0.3878,-0.3879,-0.389,-0.4005,-0.4015,-0.4025,-0.3938,-0.394,-0.3941,-0.4003,0,-0.3657,-0.3718,-0.3717,-0.3774,-0.3802,-0.379,-0.3821,-0.3838,-0.3845,-0.3871,-0.3878,-0.3908,-0.3889,-0.39,-0.3923,-0.3933,-0.3967,-0.3928,-0.3967,-0.3968,-0.3962,-0.4036,-0.4047,-0.4105,-0.4011,-0.4013,-0.4014,0,-0.3738,-0.376,-0.3819,-0.3836,-0.3848,-0.3876,-0.3902,-0.3926,-0.3946,-0.3949,-0.3967,-0.3963,-0.3999,-0.3972,-0.4022,-0.3995,-0.4011,-0.4018,-0.402,-0.4024,-0.3994,-0.4042,-0.4123,-0.4132,-0.4027,-0.4026,-0.4025,0,-0.379,-0.3834,-0.3875,-0.3886,-0.3908,-0.3927,-0.3937,-0.3955,-0.3972,-0.3995,-0.4006,-0.4033,-0.4048,-0.4069,-0.4072,-0.4053,-0.4122,-0.4096,-0.4126,-0.4126,-0.4142,-0.4141,-0.4227,-0.4151,-0.4151,-0.4151,-0.4151,0,-0.3859,-0.3896,-0.3898,-0.3924,-0.3964,-0.3963,-0.4003,-0.4011,-0.4027,-0.4054,-0.4045,-0.4071,-0.4073,-0.4099,-0.4102,-0.4143,-0.415,-0.4153,-0.4154,-0.4154,-0.4154,-0.4165,-0.4161,-0.4153,-0.4153,-0.4152,-0.4152,0,-0.3924,-0.3928,-0.3971,-0.3987,-0.3992,-0.4021,-0.4035,-0.4059,-0.4064,-0.4098,-0.4106,-0.4115,-0.4145,-0.415,-0.4186,-0.4188,-0.4236,-0.4233,-0.423,-0.4229,-0.4259,-0.4256,-0.4356,-0.4369,-0.4284,-0.4285,-0.4286,0,-0.3969,-0.3996,-0.4014,-0.4031,-0.4042,-0.4069,-0.4086,-0.4085,-0.4103,-0.4127,-0.4148,-0.4177,-0.4201,-0.425,-0.426,-0.4288,-0.4284,-0.4317,-0.4289,-0.4288,-0.4285,-0.4284,-0.4286,-0.4323,-0.4324,-0.4325,-0.4325,0,-0.4047,-0.4046,-0.4071,-0.4095,-0.4115,-0.4135,-0.4153,-0.4168,-0.4169,-0.419,-0.422,-0.4239,-0.4274,-0.4304,-0.4331,-0.4342,-0.4334,-0.4334,-0.4342,-0.4344,-0.4341,-0.4343,-0.4245,-0.4332,-0.4331,-0.4331,-0.433,-0.433,-0.4103,-0.4126,-0.4143,-0.417,-0.4183,-0.42,-0.4223,-0.423,-0.4255,-0.4284,-0.4282,-0.4315,-0.4333,-0.4368,-0.4381,-0.4408,-0.4397,-0.4409,-0.4413,-0.4416,-0.4419,-0.4336,-0.4412,-0.4412,-0.4412,-0.4412,-0.4412,0,-0.4181,-0.419,-0.4215,-0.424,-0.4261,-0.425,-0.427,-0.4289,-0.4318,-0.4334,-0.4357,-0.4392,-0.442,-0.4431,-0.4459,-0.4478,-0.4475,-0.4485,-0.4484,-0.4487,-0.4426,-0.4416,-0.4487,-0.4487,-0.4487,-0.4487,-0.4487,-0.4487,-0.4224,-0.4263,-0.4264,-0.431,-0.4319,-0.4351,-0.4363,-0.4379,-0.4392,-0.443,-0.4453,-0.446,-0.4475,-0.4503,-0.4528,-0.4531,-0.4541,-0.4553,-0.4554,-0.4498,-0.4491,-0.4484,-0.4474,-0.4555,-0.4556,-0.4612,-0.4613,-0.4613]}]]